| time (UTC) | temp C | wind direction | speed KPH | gust KPH | rain 1hr cm | rain 24hr cm | rain mn cm | humidity % | barometer mb |
| 20260507064329 | 14 | 341 | 11.3 | 17.7 | 0.00 | 0.00 | 0.00 | 77 | 1017.2 |
| 20260507063827 | 14 | 321 | 12.9 | 19.3 | 0.00 | 0.00 | 0.00 | 77 | 1017.2 |
| 20260507063326 | 14 | 339 | 11.3 | 19.3 | 0.00 | 0.00 | 0.00 | 78 | 1017.2 |
| 20260507062822 | 14 | 337 | 12.9 | 19.3 | 0.00 | 0.00 | 0.00 | 78 | 1017.2 |
| 20260507062320 | 14 | 323 | 14.5 | 19.3 | 0.00 | 0.00 | 0.00 | 78 | 1017.2 |
| 20260507061820 | 14 | 331 | 12.9 | 19.3 | 0.00 | 0.00 | 0.00 | 79 | 1017.2 |
| 20260507061316 | 14 | 326 | 12.9 | 19.3 | 0.00 | 0.00 | 0.00 | 79 | 1017.1 |
| 20260507060833 | 14 | 1 | 12.9 | 19.3 | 0.00 | 0.00 | 0.00 | 78 | 1017.1 |
| 20260507060351 | 14 | 336 | 12.9 | 20.9 | 0.00 | 0.00 | 0.00 | 79 | 1017.1 |
| 20260507055826 | 14 | 338 | 14.5 | 20.9 | 0.00 | 0.00 | 0.00 | 77 | 1017.0 |
| 20260507055324 | 14 | 334 | 11.3 | 20.9 | 0.00 | 0.00 | 0.00 | 78 | 1017.0 |
| 20260507054819 | 14 | 355 | 14.5 | 20.9 | 0.00 | 0.00 | 0.00 | 78 | 1017.0 |
| 20260507054337 | 13 | 338 | 14.5 | 20.9 | 0.00 | 0.00 | 0.00 | 79 | 1016.9 |
| 20260507053815 | 13 | 337 | 14.5 | 20.9 | 0.00 | 0.00 | 0.00 | 79 | 1016.9 |
| 20260507053351 | 14 | 324 | 14.5 | 22.5 | 0.00 | 0.00 | 0.00 | 80 | 1016.9 |
| 20260507052827 | 13 | 335 | 16.1 | 22.5 | 0.00 | 0.00 | 0.00 | 79 | 1016.9 |
| 20260507052323 | 13 | 4 | 14.5 | 20.9 | 0.00 | 0.00 | 0.00 | 80 | 1016.8 |
| 20260507051824 | 13 | 349 | 12.9 | 20.9 | 0.00 | 0.00 | 0.00 | 80 | 1016.8 |
| 20260507051322 | 13 | 328 | 11.3 | 17.7 | 0.00 | 0.00 | 0.00 | 81 | 1016.8 |
| 20260507050820 | 13 | 343 | 11.3 | 17.7 | 0.00 | 0.00 | 0.00 | 80 | 1016.8 |
| 20260507050341 | 13 | 352 | 11.3 | 20.9 | 0.00 | 0.00 | 0.00 | 80 | 1016.9 |
| 20260507045822 | 13 | 330 | 6.4 | 20.9 | 0.00 | 0.00 | 0.00 | 81 | 1016.8 |
| 20260507045321 | 13 | 320 | 8.0 | 19.3 | 0.00 | 0.00 | 0.00 | 80 | 1016.8 |
| 20260507044818 | 13 | 346 | 11.3 | 19.3 | 0.00 | 0.00 | 0.00 | 81 | 1016.8 |
| 20260507044333 | 13 | 333 | 9.7 | 17.7 | 0.00 | 0.00 | 0.00 | 81 | 1016.7 |
| 20260507043316 | 13 | 20 | 8.0 | 17.7 | 0.00 | 0.00 | 0.00 | 81 | 1016.8 |
| 20260507042831 | 13 | 345 | 8.0 | 19.3 | 0.00 | 0.00 | 0.00 | 81 | 1016.8 |
| 20260507042329 | 13 | 27 | 11.3 | 19.3 | 0.00 | 0.00 | 0.00 | 81 | 1016.9 |
| 20260507041847 | 13 | 346 | 9.7 | 20.9 | 0.00 | 0.00 | 0.00 | 81 | 1016.9 |
| 20260507041344 | 13 | 326 | 8.0 | 20.9 | 0.00 | 0.00 | 0.00 | 81 | 1016.9 |
| 20260507040819 | 14 | 3 | 9.7 | 19.3 | 0.00 | 0.00 | 0.00 | 81 | 1016.9 |
| 20260507040319 | 14 | 333 | 11.3 | 20.9 | 0.00 | 0.00 | 0.00 | 81 | 1017.0 |
| 20260507035830 | 14 | 319 | 8.0 | 20.9 | 0.00 | 0.00 | 0.00 | 81 | 1017.1 |
| 20260507035347 | 14 | 344 | 11.3 | 17.7 | 0.00 | 0.00 | 0.00 | 80 | 1017.2 |
| 20260507034825 | 14 | 333 | 9.7 | 22.5 | 0.00 | 0.00 | 0.00 | 80 | 1017.2 |
| 20260507034322 | 14 | 321 | 11.3 | 22.5 | 0.00 | 0.00 | 0.00 | 80 | 1017.3 |
| 20260507033821 | 14 | 313 | 11.3 | 24.1 | 0.00 | 0.00 | 0.00 | 81 | 1017.3 |
| 20260507033320 | 14 | 352 | 12.9 | 24.1 | 0.00 | 0.00 | 0.00 | 81 | 1017.3 |
| 20260507032817 | 14 | 29 | 11.3 | 22.5 | 0.00 | 0.00 | 0.00 | 81 | 1017.3 |
| 20260507032314 | 14 | 342 | 12.9 | 27.4 | 0.00 | 0.00 | 0.00 | 80 | 1017.3 |
| 20260507031824 | 14 | 319 | 11.3 | 27.4 | 0.00 | 0.00 | 0.00 | 80 | 1017.4 |
| 20260507031321 | 14 | 345 | 12.9 | 27.4 | 0.00 | 0.00 | 0.00 | 79 | 1017.4 |
| 20260507030818 | 14 | 358 | 17.7 | 27.4 | 0.00 | 0.00 | 0.00 | 80 | 1017.4 |
| 20260507030346 | 14 | 332 | 17.7 | 27.4 | 0.00 | 0.00 | 0.00 | 79 | 1017.5 |
| 20260507025830 | 14 | 334 | 17.7 | 24.1 | 0.00 | 0.00 | 0.00 | 79 | 1017.6 |
| 20260507025328 | 14 | 330 | 17.7 | 25.7 | 0.00 | 0.00 | 0.00 | 80 | 1017.6 |
| 20260507024825 | 14 | 351 | 16.1 | 22.5 | 0.00 | 0.00 | 0.00 | 81 | 1017.6 |
| 20260507024334 | 14 | 326 | 14.5 | 24.1 | 0.00 | 0.00 | 0.00 | 81 | 1017.6 |
| 20260507023830 | 14 | 338 | 12.9 | 24.1 | 0.00 | 0.00 | 0.00 | 80 | 1017.6 |
| 20260507023329 | 14 | 344 | 12.9 | 22.5 | 0.00 | 0.00 | 0.00 | 81 | 1017.7 |
| 20260507022825 | 14 | 345 | 12.9 | 22.5 | 0.00 | 0.00 | 0.00 | 80 | 1017.7 |
| 20260507022323 | 14 | 1 | 12.9 | 20.9 | 0.00 | 0.00 | 0.00 | 81 | 1017.7 |
| 20260507021843 | 14 | 333 | 11.3 | 17.7 | 0.00 | 0.00 | 0.00 | 81 | 1017.7 |
| 20260507021318 | 14 | 338 | 9.7 | 20.9 | 0.00 | 0.00 | 0.00 | 81 | 1017.7 |
| 20260507020836 | 14 | 352 | 12.9 | 22.5 | 0.00 | 0.00 | 0.00 | 82 | 1017.7 |
| 20260507020333 | 14 | 332 | 11.3 | 22.5 | 0.00 | 0.00 | 0.00 | 82 | 1017.8 |
| 20260507015831 | 14 | 331 | 11.3 | 22.5 | 0.00 | 0.00 | 0.00 | 82 | 1017.8 |
| 20260507015328 | 14 | 15 | 11.3 | 19.3 | 0.00 | 0.00 | 0.00 | 82 | 1017.7 |
| 20260507014825 | 14 | 345 | 11.3 | 22.5 | 0.00 | 0.00 | 0.00 | 82 | 1017.8 |
| 20260507014324 | 14 | 348 | 11.3 | 22.5 | 0.00 | 0.00 | 0.00 | 82 | 1017.8 |
| 20260507013842 | 14 | 360 | 11.3 | 20.9 | 0.00 | 0.00 | 0.00 | 82 | 1017.9 |
| 20260507013319 | 14 | 324 | 11.3 | 22.5 | 0.00 | 0.00 | 0.00 | 81 | 1017.9 |
| 20260507012813 | 14 | 27 | 11.3 | 22.5 | 0.00 | 0.00 | 0.00 | 81 | 1018.0 |
| 20260507012349 | 14 | 326 | 11.3 | 20.9 | 0.00 | 0.00 | 0.00 | 81 | 1018.0 |
| 20260507011826 | 14 | 334 | 9.7 | 19.3 | 0.00 | 0.00 | 0.00 | 81 | 1018.1 |
| 20260507011322 | 14 | 354 | 11.3 | 20.9 | 0.00 | 0.00 | 0.00 | 83 | 1018.1 |
| 20260507010841 | 14 | 340 | 9.7 | 20.9 | 0.00 | 0.00 | 0.00 | 81 | 1018.1 |
| 20260507010407 | 14 | 328 | 9.7 | 20.9 | 0.00 | 0.00 | 0.00 | 81 | 1018.1 |
| 20260507005827 | 14 | 312 | 12.9 | 22.5 | 0.00 | 0.00 | 0.00 | 80 | 1018.1 |
| 20260507005325 | 14 | 324 | 12.9 | 22.5 | 0.00 | 0.00 | 0.00 | 80 | 1018.1 |
| 20260507004820 | 14 | 346 | 9.7 | 17.7 | 0.00 | 0.00 | 0.00 | 80 | 1018.2 |
| 20260507004340 | 14 | 330 | 9.7 | 17.7 | 0.00 | 0.00 | 0.00 | 81 | 1018.3 |
| 20260507003831 | 14 | 2 | 8.0 | 17.7 | 0.00 | 0.00 | 0.00 | 81 | 1018.3 |
| 20260507003330 | 14 | 340 | 8.0 | 17.7 | 0.00 | 0.00 | 0.00 | 81 | 1018.3 |
| 20260507002827 | 14 | 346 | 6.4 | 16.1 | 0.00 | 0.00 | 0.00 | 82 | 1018.3 |
| 20260507002326 | 14 | 359 | 6.4 | 19.3 | 0.00 | 0.00 | 0.00 | 82 | 1018.3 |
| 20260507001823 | 14 | 17 | 12.9 | 20.9 | 0.00 | 0.00 | 0.00 | 81 | 1018.3 |
| 20260507001341 | 14 | 326 | 12.9 | 20.9 | 0.00 | 0.00 | 0.00 | 80 | 1018.4 |
| 20260507000835 | 14 | 347 | 12.9 | 22.5 | 0.00 | 0.00 | 0.00 | 81 | 1018.4 |
| 20260507000335 | 14 | 29 | 12.9 | 22.5 | 0.00 | 0.00 | 0.00 | 80 | 1018.4 |
| 20260506235850 | 14 | 48 | 16.1 | 20.9 | 0.00 | 0.00 | 0.00 | 80 | 1018.5 |
| 20260506235326 | 14 | 345 | 11.3 | 24.1 | 0.00 | 0.00 | 0.00 | 81 | 1018.5 |
| 20260506234821 | 14 | 323 | 11.3 | 24.1 | 0.00 | 0.00 | 0.00 | 80 | 1018.5 |
| 20260506234320 | 14 | 17 | 16.1 | 24.1 | 0.00 | 0.00 | 0.00 | 82 | 1018.5 |
| 20260506233818 | 14 | 335 | 12.9 | 20.9 | 0.00 | 0.00 | 0.00 | 81 | 1018.5 |
| 20260506233327 | 14 | 6 | 12.9 | 22.5 | 0.00 | 0.00 | 0.00 | 81 | 1018.5 |
| 20260506232824 | 14 | 9 | 12.9 | 24.1 | 0.00 | 0.00 | 0.00 | 81 | 1018.6 |
| 20260506232320 | 14 | 7 | 17.7 | 24.1 | 0.00 | 0.00 | 0.00 | 81 | 1018.6 |
| 20260506231818 | 14 | 5 | 16.1 | 22.5 | 0.00 | 0.00 | 0.00 | 81 | 1018.5 |
| 20260506231315 | 14 | 20 | 12.9 | 22.5 | 0.00 | 0.00 | 0.00 | 81 | 1018.6 |
| 20260506230812 | 14 | 11 | 11.3 | 20.9 | 0.00 | 0.00 | 0.00 | 81 | 1018.5 |
| 20260506230330 | 14 | 4 | 14.5 | 20.9 | 0.00 | 0.00 | 0.00 | 81 | 1018.5 |
| 20260506225820 | 14 | 327 | 11.3 | 24.1 | 0.00 | 0.00 | 0.00 | 82 | 1018.5 |
| 20260506225318 | 14 | 3 | 17.7 | 27.4 | 0.00 | 0.00 | 0.00 | 80 | 1018.5 |
| 20260506224814 | 14 | 340 | 14.5 | 27.4 | 0.00 | 0.00 | 0.00 | 80 | 1018.5 |
| 20260506224331 | 14 | 359 | 17.7 | 25.7 | 0.00 | 0.00 | 0.00 | 79 | 1018.5 |
| 20260506223848 | 15 | 332 | 11.3 | 22.5 | 0.00 | 0.00 | 0.00 | 81 | 1018.6 |
| 20260506223326 | 15 | 355 | 9.7 | 25.7 | 0.00 | 0.00 | 0.00 | 81 | 1018.7 |
| 20260506222821 | 15 | 354 | 16.1 | 25.7 | 0.00 | 0.00 | 0.00 | 80 | 1018.7 |
| 20260506222319 | 15 | 349 | 19.3 | 25.7 | 0.00 | 0.00 | 0.00 | 80 | 1018.7 |
| 20260506221818 | 14 | 352 | 17.7 | 25.7 | 0.00 | 0.00 | 0.00 | 79 | 1018.7 |
| 20260506221315 | 15 | 1 | 11.3 | 27.4 | 0.00 | 0.00 | 0.00 | 81 | 1018.8 |
| 20260506220834 | 15 | 14 | 16.1 | 29.0 | 0.00 | 0.00 | 0.00 | 80 | 1018.8 |
| 20260506220313 | 15 | 359 | 14.5 | 25.7 | 0.00 | 0.00 | 0.00 | 80 | 1018.8 |
| 20260506215838 | 15 | 30 | 11.3 | 27.4 | 0.00 | 0.00 | 0.00 | 80 | 1018.9 |
| 20260506215330 | 15 | 337 | 11.3 | 27.4 | 0.00 | 0.00 | 0.00 | 79 | 1018.8 |
| 20260506214827 | 15 | 352 | 12.9 | 25.7 | 0.00 | 0.00 | 0.00 | 79 | 1018.8 |
| 20260506214326 | 15 | 345 | 12.9 | 27.4 | 0.00 | 0.00 | 0.00 | 78 | 1018.9 |
| 20260506213824 | 15 | 8 | 12.9 | 27.4 | 0.00 | 0.00 | 0.00 | 80 | 1018.9 |
| 20260506213343 | 15 | 347 | 11.3 | 25.7 | 0.00 | 0.00 | 0.00 | 80 | 1019.0 |
| 20260506212819 | 15 | 345 | 9.7 | 25.7 | 0.00 | 0.00 | 0.00 | 80 | 1018.9 |
| 20260506212312 | 15 | 3 | 14.5 | 25.7 | 0.00 | 0.00 | 0.00 | 80 | 1018.9 |
| 20260506211822 | 15 | 360 | 11.3 | 25.7 | 0.00 | 0.00 | 0.00 | 80 | 1018.9 |
| 20260506211320 | 15 | 25 | 14.5 | 25.7 | 0.00 | 0.00 | 0.00 | 81 | 1019.0 |
| 20260506210817 | 15 | 43 | 9.7 | 24.1 | 0.00 | 0.00 | 0.00 | 80 | 1018.9 |
| 20260506210317 | 15 | 360 | 9.7 | 27.4 | 0.00 | 0.00 | 0.00 | 81 | 1018.9 |
| 20260506205814 | 15 | 18 | 19.3 | 27.4 | 0.00 | 0.00 | 0.00 | 80 | 1018.8 |
| 20260506205326 | 15 | 351 | 12.9 | 25.7 | 0.00 | 0.00 | 0.00 | 81 | 1018.8 |
| 20260506204824 | 15 | 6 | 12.9 | 29.0 | 0.00 | 0.00 | 0.00 | 81 | 1018.8 |
| 20260506204321 | 15 | 343 | 12.9 | 29.0 | 0.00 | 0.00 | 0.00 | 82 | 1018.7 |
| 20260506203839 | 15 | 25 | 12.9 | 27.4 | 0.00 | 0.00 | 0.00 | 82 | 1018.7 |
| 20260506203316 | 15 | 11 | 12.9 | 27.4 | 0.00 | 0.00 | 0.00 | 81 | 1018.7 |
| 20260506202812 | 15 | 335 | 12.9 | 29.0 | 0.00 | 0.00 | 0.00 | 81 | 1018.7 |
| 20260506202349 | 15 | 23 | 20.9 | 29.0 | 0.00 | 0.00 | 0.00 | 80 | 1018.7 |
| 20260506201824 | 15 | 28 | 14.5 | 27.4 | 0.00 | 0.00 | 0.00 | 80 | 1018.6 |
| 20260506201342 | 15 | 304 | 16.1 | 27.4 | 0.00 | 0.00 | 0.00 | 82 | 1018.7 |
| 20260506200818 | 15 | 359 | 19.3 | 27.4 | 0.00 | 0.00 | 0.00 | 82 | 1018.6 |
| 20260506200316 | 15 | 352 | 19.3 | 27.4 | 0.00 | 0.00 | 0.00 | 81 | 1018.6 |
| 20260506195839 | 15 | 359 | 17.7 | 25.7 | 0.00 | 0.00 | 0.00 | 81 | 1018.6 |
| 20260506195316 | 15 | 18 | 19.3 | 25.7 | 0.00 | 0.00 | 0.00 | 80 | 1018.6 |
| 20260506194831 | 15 | 347 | 12.9 | 29.0 | 0.00 | 0.00 | 0.00 | 80 | 1018.6 |
| 20260506194329 | 15 | 352 | 20.9 | 29.0 | 0.00 | 0.00 | 0.00 | 80 | 1018.6 |
| 20260506193827 | 15 | 356 | 19.3 | 29.0 | 0.00 | 0.00 | 0.00 | 80 | 1018.6 |
| 20260506193326 | 15 | 333 | 9.7 | 22.5 | 0.00 | 0.00 | 0.00 | 81 | 1018.6 |
| 20260506192823 | 15 | 23 | 12.9 | 22.5 | 0.00 | 0.00 | 0.00 | 80 | 1018.6 |
| 20260506192320 | 15 | 321 | 11.3 | 22.5 | 0.00 | 0.00 | 0.00 | 80 | 1018.6 |
| 20260506191818 | 15 | 317 | 11.3 | 27.4 | 0.00 | 0.00 | 0.00 | 79 | 1018.5 |
| 20260506191315 | 15 | 345 | 20.9 | 27.4 | 0.00 | 0.00 | 0.00 | 79 | 1018.5 |
| 20260506190813 | 15 | 25 | 14.5 | 25.7 | 0.00 | 0.00 | 0.00 | 78 | 1018.5 |
| 20260506190351 | 15 | 348 | 14.5 | 25.7 | 0.00 | 0.00 | 0.00 | 78 | 1018.5 |
| 20260506185822 | 16 | 17 | 16.1 | 24.1 | 0.00 | 0.00 | 0.00 | 77 | 1018.4 |
| 20260506185319 | 16 | 333 | 12.9 | 24.1 | 0.00 | 0.00 | 0.00 | 77 | 1018.4 |
| 20260506184836 | 16 | 5 | 16.1 | 24.1 | 0.00 | 0.00 | 0.00 | 75 | 1018.4 |
| 20260506184331 | 16 | 312 | 9.7 | 24.1 | 0.00 | 0.00 | 0.00 | 77 | 1018.4 |
| 20260506183829 | 16 | 9 | 12.9 | 25.7 | 0.00 | 0.00 | 0.00 | 77 | 1018.5 |
| 20260506183328 | 16 | 334 | 11.3 | 24.1 | 0.00 | 0.00 | 0.00 | 76 | 1018.5 |
| 20260506182845 | 16 | 19 | 14.5 | 25.7 | 0.00 | 0.00 | 0.00 | 77 | 1018.5 |
| 20260506182322 | 16 | 347 | 17.7 | 25.7 | 0.00 | 0.00 | 0.00 | 76 | 1018.5 |
| 20260506181840 | 16 | 344 | 17.7 | 27.4 | 0.00 | 0.00 | 0.00 | 76 | 1018.4 |
| 20260506181338 | 16 | 319 | 16.1 | 27.4 | 0.00 | 0.00 | 0.00 | 76 | 1018.4 |
| 20260506180834 | 16 | 340 | 9.7 | 27.4 | 0.00 | 0.00 | 0.00 | 77 | 1018.5 |
| 20260506180331 | 16 | 354 | 14.5 | 29.0 | 0.00 | 0.00 | 0.00 | 76 | 1018.5 |
| 20260506175848 | 16 | 330 | 16.1 | 25.7 | 0.00 | 0.00 | 0.00 | 78 | 1018.5 |
| 20260506175341 | 16 | 337 | 16.1 | 29.0 | 0.00 | 0.00 | 0.00 | 78 | 1018.6 |
| 20260506174818 | 16 | 321 | 17.7 | 29.0 | 0.00 | 0.00 | 0.00 | 77 | 1018.6 |
| 20260506174315 | 16 | 325 | 16.1 | 25.7 | 0.00 | 0.00 | 0.00 | 76 | 1018.6 |
| 20260506173813 | 16 | 3 | 16.1 | 27.4 | 0.00 | 0.00 | 0.00 | 76 | 1018.6 |
| 20260506173400 | 16 | 349 | 16.1 | 29.0 | 0.00 | 0.00 | 0.00 | 75 | 1018.6 |
| 20260506172824 | 16 | 340 | 17.7 | 29.0 | 0.00 | 0.00 | 0.00 | 74 | 1018.7 |
| 20260506172321 | 16 | 354 | 12.9 | 27.4 | 0.00 | 0.00 | 0.00 | 75 | 1018.7 |
| 20260506171818 | 16 | 313 | 16.1 | 27.4 | 0.00 | 0.00 | 0.00 | 76 | 1018.7 |
| 20260506171315 | 16 | 315 | 14.5 | 27.4 | 0.00 | 0.00 | 0.00 | 77 | 1018.7 |
| 20260506170814 | 16 | 347 | 14.5 | 27.4 | 0.00 | 0.00 | 0.00 | 76 | 1018.7 |
| 20260506170333 | 16 | 356 | 17.7 | 27.4 | 0.00 | 0.00 | 0.00 | 76 | 1018.7 |
| 20260506165830 | 16 | 323 | 16.1 | 27.4 | 0.00 | 0.00 | 0.00 | 74 | 1018.7 |
| 20260506165328 | 16 | 336 | 14.5 | 29.0 | 0.00 | 0.00 | 0.00 | 76 | 1018.8 |
| 20260506164826 | 16 | 333 | 19.3 | 27.4 | 0.00 | 0.00 | 0.00 | 75 | 1018.8 |
| 20260506164324 | 16 | 335 | 17.7 | 30.6 | 0.00 | 0.00 | 0.00 | 77 | 1018.9 |
| 20260506163822 | 16 | 331 | 22.5 | 30.6 | 0.00 | 0.00 | 0.00 | 77 | 1018.8 |
| 20260506163320 | 16 | 356 | 17.7 | 27.4 | 0.00 | 0.00 | 0.00 | 77 | 1018.8 |
| 20260506162836 | 16 | 345 | 17.7 | 30.6 | 0.00 | 0.00 | 0.00 | 76 | 1018.9 |
| 20260506162313 | 16 | 319 | 20.9 | 30.6 | 0.00 | 0.00 | 0.00 | 76 | 1018.9 |
| 20260506161829 | 16 | 311 | 16.1 | 29.0 | 0.00 | 0.00 | 0.00 | 77 | 1018.9 |
| 20260506161327 | 16 | 336 | 20.9 | 29.0 | 0.00 | 0.00 | 0.00 | 77 | 1019.0 |
| 20260506160824 | 16 | 345 | 16.1 | 30.6 | 0.00 | 0.00 | 0.00 | 76 | 1019.0 |
| 20260506155834 | 16 | 320 | 19.3 | 25.7 | 0.00 | 0.00 | 0.00 | 77 | 1019.0 |
| 20260506155346 | 16 | 333 | 16.1 | 25.7 | 0.00 | 0.00 | 0.00 | 76 | 1019.0 |
| 20260506154822 | 16 | 325 | 14.5 | 29.0 | 0.00 | 0.00 | 0.00 | 74 | 1019.0 |
| 20260506154320 | 16 | 340 | 17.7 | 29.0 | 0.00 | 0.00 | 0.00 | 76 | 1019.1 |
| 20260506153819 | 16 | 326 | 19.3 | 27.4 | 0.00 | 0.00 | 0.00 | 77 | 1019.1 |
| 20260506153338 | 16 | 342 | 19.3 | 27.4 | 0.00 | 0.00 | 0.00 | 78 | 1019.1 |
| 20260506152829 | 16 | 339 | 19.3 | 29.0 | 0.00 | 0.00 | 0.00 | 78 | 1019.1 |
| 20260506152327 | 16 | 349 | 20.9 | 27.4 | 0.00 | 0.00 | 0.00 | 77 | 1019.2 |
| 20260506151826 | 16 | 1 | 17.7 | 27.4 | 0.00 | 0.00 | 0.00 | 79 | 1019.3 |
| 20260506151324 | 16 | 354 | 20.9 | 30.6 | 0.00 | 0.00 | 0.00 | 76 | 1019.4 |
| 20260506150843 | 16 | 333 | 19.3 | 29.0 | 0.00 | 0.00 | 0.00 | 77 | 1019.4 |
| 20260506150341 | 16 | 340 | 19.3 | 29.0 | 0.00 | 0.00 | 0.00 | 78 | 1019.5 |
| 20260506145838 | 16 | 350 | 20.9 | 29.0 | 0.00 | 0.00 | 0.00 | 78 | 1019.5 |
| 20260506145330 | 16 | 347 | 20.9 | 27.4 | 0.00 | 0.00 | 0.00 | 77 | 1019.5 |
| 20260506144826 | 16 | 316 | 20.9 | 30.6 | 0.00 | 0.00 | 0.00 | 77 | 1019.7 |
| 20260506144324 | 16 | 339 | 20.9 | 30.6 | 0.00 | 0.00 | 0.00 | 77 | 1019.8 |
| 20260506143313 | 16 | 334 | 19.3 | 25.7 | 0.00 | 0.00 | 0.00 | 78 | 1019.9 |
| 20260506142851 | 16 | 342 | 20.9 | 25.7 | 0.00 | 0.00 | 0.00 | 79 | 1020.1 |
| 20260506142329 | 16 | 340 | 17.7 | 24.1 | 0.00 | 0.00 | 0.00 | 79 | 1020.0 |
| 20260506141825 | 16 | 335 | 19.3 | 25.7 | 0.00 | 0.00 | 0.00 | 80 | 1020.1 |
| 20260506141323 | 16 | 360 | 17.7 | 25.7 | 0.00 | 0.00 | 0.00 | 79 | 1020.0 |
| 20260506140819 | 16 | 333 | 19.3 | 25.7 | 0.00 | 0.00 | 0.00 | 81 | 1020.1 |
| 20260506140318 | 16 | 349 | 16.1 | 27.4 | 0.00 | 0.00 | 0.00 | 79 | 1020.1 |
| 20260506135815 | 16 | 353 | 17.7 | 25.7 | 0.00 | 0.00 | 0.00 | 79 | 1020.2 |
| 20260506135347 | 16 | 298 | 17.7 | 27.4 | 0.00 | 0.00 | 0.00 | 80 | 1020.3 |
| 20260506134845 | 16 | 330 | 17.7 | 27.4 | 0.00 | 0.00 | 0.00 | 79 | 1020.3 |
| 20260506134341 | 16 | 338 | 17.7 | 25.7 | 0.00 | 0.00 | 0.00 | 80 | 1020.2 |
| 20260506133837 | 16 | 331 | 17.7 | 25.7 | 0.00 | 0.00 | 0.00 | 79 | 1020.3 |
| 20260506133330 | 16 | 347 | 19.3 | 27.4 | 0.00 | 0.00 | 0.00 | 78 | 1020.3 |
| 20260506132845 | 16 | 323 | 17.7 | 27.4 | 0.00 | 0.00 | 0.00 | 78 | 1020.4 |
| 20260506132321 | 16 | 336 | 19.3 | 27.4 | 0.00 | 0.00 | 0.00 | 77 | 1020.5 |
| 20260506131819 | 16 | 330 | 20.9 | 27.4 | 0.00 | 0.00 | 0.00 | 79 | 1020.5 |
| 20260506131317 | 16 | 337 | 17.7 | 25.7 | 0.00 | 0.00 | 0.00 | 79 | 1020.6 |
| 20260506130815 | 16 | 341 | 20.9 | 29.0 | 0.00 | 0.00 | 0.00 | 79 | 1020.6 |
| 20260506130332 | 16 | 353 | 20.9 | 29.0 | 0.00 | 0.00 | 0.00 | 79 | 1020.6 |
| 20260506125831 | 16 | 339 | 19.3 | 29.0 | 0.00 | 0.00 | 0.00 | 80 | 1020.6 |
| 20260506125327 | 16 | 6 | 19.3 | 29.0 | 0.00 | 0.00 | 0.00 | 80 | 1020.7 |
| 20260506124826 | 16 | 338 | 20.9 | 27.4 | 0.00 | 0.00 | 0.00 | 81 | 1020.8 |
| 20260506124323 | 16 | 327 | 19.3 | 29.0 | 0.00 | 0.00 | 0.00 | 81 | 1020.7 |
| 20260506123814 | 16 | 333 | 17.7 | 29.0 | 0.00 | 0.00 | 0.00 | 81 | 1020.9 |
| 20260506123314 | 16 | 341 | 19.3 | 25.7 | 0.00 | 0.00 | 0.00 | 80 | 1021.0 |
| 20260506122828 | 16 | 331 | 19.3 | 29.0 | 0.00 | 0.00 | 0.00 | 81 | 1020.9 |
| 20260506122325 | 15 | 343 | 20.9 | 29.0 | 0.00 | 0.00 | 0.00 | 80 | 1020.9 |
| 20260506121822 | 15 | 352 | 19.3 | 27.4 | 0.00 | 0.00 | 0.00 | 82 | 1020.9 |
| 20260506121320 | 15 | 303 | 17.7 | 24.1 | 0.00 | 0.00 | 0.00 | 83 | 1021.0 |
| 20260506120818 | 15 | 336 | 16.1 | 27.4 | 0.00 | 0.00 | 0.00 | 84 | 1021.1 |
| 20260506120338 | 15 | 333 | 17.7 | 27.4 | 0.00 | 0.00 | 0.00 | 83 | 1021.1 |
| 20260506115814 | 15 | 334 | 19.3 | 27.4 | 0.00 | 0.00 | 0.00 | 80 | 1021.1 |
| 20260506115313 | 15 | 323 | 19.3 | 27.4 | 0.00 | 0.00 | 0.00 | 79 | 1021.2 |
| 20260506114848 | 15 | 316 | 19.3 | 27.4 | 0.00 | 0.00 | 0.00 | 82 | 1021.2 |
| 20260506114323 | 15 | 329 | 20.9 | 27.4 | 0.00 | 0.00 | 0.00 | 82 | 1021.2 |
| 20260506113836 | 15 | 359 | 19.3 | 27.4 | 0.00 | 0.00 | 0.00 | 82 | 1021.3 |
| 20260506113313 | 15 | 340 | 22.5 | 29.0 | 0.00 | 0.00 | 0.00 | 82 | 1021.4 |
| 20260506112830 | 15 | 333 | 20.9 | 29.0 | 0.00 | 0.00 | 0.00 | 81 | 1021.4 |
| 20260506112328 | 15 | 325 | 20.9 | 27.4 | 0.00 | 0.00 | 0.00 | 82 | 1021.3 |
| 20260506111824 | 15 | 341 | 19.3 | 29.0 | 0.00 | 0.00 | 0.00 | 83 | 1021.4 |
| 20260506111322 | 15 | 340 | 20.9 | 29.0 | 0.00 | 0.00 | 0.00 | 82 | 1021.4 |
| 20260506110819 | 15 | 334 | 17.7 | 27.4 | 0.00 | 0.00 | 0.00 | 84 | 1021.4 |
| 20260506110337 | 15 | 330 | 17.7 | 27.4 | 0.00 | 0.00 | 0.00 | 82 | 1021.4 |
| 20260506105817 | 15 | 322 | 19.3 | 25.7 | 0.00 | 0.00 | 0.00 | 83 | 1021.4 |
| 20260506105314 | 15 | 9 | 17.7 | 25.7 | 0.00 | 0.00 | 0.00 | 83 | 1021.5 |
| 20260506104837 | 15 | 335 | 17.7 | 25.7 | 0.00 | 0.00 | 0.00 | 83 | 1021.5 |
| 20260506104330 | 15 | 305 | 17.7 | 29.0 | 0.00 | 0.00 | 0.00 | 83 | 1021.5 |
| 20260506103829 | 15 | 5 | 17.7 | 27.4 | 0.00 | 0.00 | 0.00 | 83 | 1021.4 |
| 20260506103347 | 14 | 341 | 19.3 | 27.4 | 0.00 | 0.00 | 0.00 | 84 | 1021.5 |
| 20260506102823 | 14 | 336 | 17.7 | 27.4 | 0.00 | 0.00 | 0.00 | 84 | 1021.5 |
| 20260506102322 | 14 | 324 | 17.7 | 29.0 | 0.00 | 0.00 | 0.00 | 85 | 1021.6 |
| 20260506101815 | 14 | 7 | 19.3 | 29.0 | 0.00 | 0.00 | 0.00 | 86 | 1021.6 |
| 20260506101312 | 14 | 359 | 22.5 | 29.0 | 0.00 | 0.00 | 0.00 | 86 | 1021.6 |
| 20260506100831 | 14 | 323 | 17.7 | 29.0 | 0.00 | 0.00 | 0.00 | 86 | 1021.7 |
| 20260506100329 | 14 | 337 | 17.7 | 30.6 | 0.00 | 0.00 | 0.00 | 88 | 1021.7 |
| 20260506095828 | 14 | 332 | 20.9 | 32.2 | 0.00 | 0.00 | 0.00 | 86 | 1021.6 |
| 20260506095326 | 14 | 339 | 22.5 | 33.8 | 0.00 | 0.00 | 0.00 | 86 | 1021.6 |
| 20260506094824 | 14 | 335 | 25.7 | 33.8 | 0.00 | 0.00 | 0.00 | 87 | 1021.6 |
| 20260506094321 | 14 | 328 | 22.5 | 32.2 | 0.00 | 0.00 | 0.00 | 87 | 1021.5 |
| 20260506093819 | 14 | 342 | 24.1 | 32.2 | 0.00 | 0.00 | 0.00 | 88 | 1021.5 |
| 20260506093318 | 13 | 334 | 25.7 | 33.8 | 0.00 | 0.00 | 0.00 | 87 | 1021.5 |
| 20260506092817 | 14 | 341 | 22.5 | 35.4 | 0.00 | 0.00 | 0.00 | 88 | 1021.5 |
| 20260506092314 | 13 | 327 | 24.1 | 37.0 | 0.00 | 0.00 | 0.00 | 86 | 1021.4 |
| 20260506091812 | 13 | 327 | 25.7 | 37.0 | 0.00 | 0.00 | 0.00 | 87 | 1021.3 |
| 20260506091329 | 14 | 343 | 24.1 | 35.4 | 0.00 | 0.00 | 0.00 | 88 | 1021.4 |
| 20260506090843 | 14 | 330 | 25.7 | 33.8 | 0.00 | 0.00 | 0.00 | 88 | 1021.3 |
| 20260506090341 | 14 | 347 | 22.5 | 33.8 | 0.00 | 0.00 | 0.00 | 87 | 1021.3 |
| 20260506085823 | 14 | 311 | 22.5 | 30.6 | 0.00 | 0.00 | 0.00 | 87 | 1021.4 |
| 20260506085320 | 14 | 337 | 19.3 | 30.6 | 0.00 | 0.00 | 0.00 | 87 | 1021.4 |
| 20260506084837 | 14 | 330 | 17.7 | 25.7 | 0.00 | 0.00 | 0.00 | 86 | 1021.4 |
| 20260506084315 | 14 | 11 | 16.1 | 25.7 | 0.00 | 0.00 | 0.00 | 87 | 1021.3 |
| 20260506083832 | 15 | 334 | 17.7 | 25.7 | 0.00 | 0.00 | 0.00 | 87 | 1021.3 |
| 20260506083329 | 15 | 345 | 16.1 | 24.1 | 0.00 | 0.00 | 0.00 | 84 | 1021.3 |
| 20260506082848 | 15 | 337 | 16.1 | 24.1 | 0.00 | 0.00 | 0.00 | 83 | 1021.3 |
| 20260506082325 | 15 | 335 | 9.7 | 14.5 | 0.00 | 0.00 | 0.00 | 83 | 1021.3 |
| 20260506081825 | 15 | 330 | 8.0 | 12.9 | 0.00 | 0.00 | 0.00 | 84 | 1021.3 |
| 20260506081321 | 15 | 336 | 9.7 | 12.9 | 0.00 | 0.00 | 0.00 | 82 | 1021.3 |
| 20260506080819 | 15 | 344 | 9.7 | 12.9 | 0.00 | 0.00 | 0.00 | 82 | 1021.3 |
| 20260506080338 | 15 | 345 | 8.0 | 14.5 | 0.00 | 0.00 | 0.00 | 82 | 1021.4 |
| 20260506073344 | 15 | 350 | 11.3 | 17.7 | 0.00 | 0.00 | 0.00 | 82 | 1021.2 |
| 20260506072325 | 15 | 328 | 14.5 | 19.3 | 0.00 | 0.00 | 0.00 | 82 | 1021.3 |
| 20260506071824 | 15 | 352 | 12.9 | 19.3 | 0.00 | 0.00 | 0.00 | 82 | 1021.3 |
| 20260506071322 | 15 | 17 | 14.5 | 17.7 | 0.00 | 0.00 | 0.00 | 81 | 1021.3 |
| 20260506070820 | 15 | 354 | 11.3 | 17.7 | 0.00 | 0.00 | 0.00 | 81 | 1021.2 |
| 20260506070319 | 15 | 9 | 6.4 | 17.7 | 0.00 | 0.00 | 0.00 | 81 | 1021.2 |